Location: Unspecified
(0.0000°N, 0.0000°E)
Time: 10:05:37
(UTC+00:00)

Tiangong - Pass Details

Date: 11 April 2024
Orbit: 371 x 379 km, 41.5° (Epoch: 19 April)

Event Time Altitude Azimuth Distance (km) Brightness Sun altitude
Rises 18:58:23 0° 222° (SW) 2,211 2.2 -14.2°
Reaches altitude 10° 19:00:27 10° 218° (SW) 1,361 1.0 -14.7°
Maximum altitude 19:03:30 63° 136° (SE) 413 -2.3 -15.5°
Enters shadow 19:04:26 38° 70° (ENE) 578 -1.7 -15.7°
